Regional Weather Roundup
Issued by NWS

Home | Current Version | Previous Version | Text Only | Print | Product List | Glossary Off
Versions: 1 2 3 4 5 6 7 8 9 10 11 12 13 14 15 16 17 18 19 20 21 22 23 24 25 26 27 28 29 30 31 32 33 34 35 36 37 38 39 40 41 42 43 44 45 46 47 48 49 50

000
ASUS43 KLMK 270202
RWRKY
KENTUCKY REGIONAL WEATHER ROUNDUP
NATIONAL WEATHER SERVICE LOUISVILLE KY
1000 PM EDT THU APR 26 2018

NOTE "FAIR" INDICATES FEW OR NO CLOUDS BELOW 12,000 FEET
WITH NO SIGNIFICANT WEATHER AND/OR OBSTRUCTIONS TO VISIBILITY.

KYZ001>023-026-027-061>063-070>075-270300-
WESTERN AND SOUTH CENTRAL KENTUCKY

CITY           SKY/WX    TMP DP  RH WIND       PRES   REMARKS
PADUCAH        FAIR      56  45  66 W5        29.89R
HENDERSON      FAIR      56  43  61 W3        29.89R
OWENSBORO      FAIR      56  40  55 NW5       29.88S
HOPKINSVILLE   FAIR      55  54  98 SW3       29.89R
BOWLING GREEN  FAIR      56  54  93 S6        29.89R
GLASGOW        NOT AVBL
$$

KYZ024-025-028>034-038-045-046-053-270300-
NORTH CENTRAL KENTUCKY

CITY           SKY/WX    TMP DP  RH WIND       PRES   REMARKS
LOUISVILLE/SDF MOCLDY    63  28  26 NE5       29.85R
LOUISVILLE/LOU FAIR      60  32  34 CALM      29.86R
FORT KNOX      CLOUDY    59  29  32 W7        29.86R
$$

KYZ035>037-039>044-047>052-055>060-089>105-270300-
NORTHEAST KENTUCKY

CITY           SKY/WX    TMP DP  RH WIND       PRES   REMARKS
LEXINGTON      FAIR      57  52  83 SW6       29.86R
COVINGTON      MOCLDY    58  36  43 CALM      29.84S
FRANKFORT      FAIR      55  45  68 W3        29.84R
$$

KYZ054-064>069-076>088-106>120-270300-
SOUTHEAST KENTUCKY

CITY           SKY/WX    TMP DP  RH WIND       PRES   REMARKS
JACKSON        LGT RAIN  51  49  92 SW3       29.88S
LONDON         LGT RAIN  52  50  93 NW5       29.89S
SOMERSET       NOT AVBL
MIDDLESBORO    DRIZZLE   52  52 100 CALM      29.90R
MONTICELLO     NOT AVBL
$$





USA.gov is the U.S. government's official web portal to all federal, state and local government web resources and services.